• Em Portugal
  • Lista de países
  • Para 7 dias
  • Temperatura da água
  • Mapas de satélite
  • Mapa do tempo
  • Widgets de tempo
  • user-avatar
    Iniciar Sessão

    Previsão horária em Agadez

    Hoje, 19 Julho, Quinta-feira

    Tempo Temperatura Precipitação Vento Pressão Humidade
    00:00 +38°C° 0 mm 2 m/s 717 mmHg 28%
    01:00 +38°C° 0 mm 2 m/s 717 mmHg 29%
    02:00 +37°C° 0 mm 2 m/s 716 mmHg 30%
    03:00 +37°C° 0 mm 3 m/s 716 mmHg 32%
    04:00 +36°C° 0 mm 3 m/s 716 mmHg 33%
    05:00 +36°C° 0 mm 3 m/s 716 mmHg 35%
    06:00 +35°C° 0 mm 3 m/s 716 mmHg 36%
    07:00 +35°C° 0 mm 3 m/s 716 mmHg 37%
    08:00 +36°C° 0 mm 3 m/s 716 mmHg 34%
    09:00 +38°C° 0 mm 4 m/s 717 mmHg 31%
    10:00 +40°C° 0 mm 4 m/s 717 mmHg 29%
    11:00 +40°C° 0 mm 3 m/s 717 mmHg 26%
    12:00 +41°C° 0 mm 2 m/s 716 mmHg 23%
    13:00 +41°C° 0 mm 2 m/s 716 mmHg 21%
    14:00 +42°C° 0,3 mm 3 m/s 715 mmHg 22%
    15:00 +41°C° 0,3 mm 4 m/s 715 mmHg 24%
    16:00 +40°C° 0,3 mm 5 m/s 714 mmHg 26%
    17:00 +40°C° 0,3 mm 6 m/s 714 mmHg 27%
    18:00 +39°C° 0,3 mm 6 m/s 714 mmHg 28%
    19:00 +39°C° 0,3 mm 6 m/s 714 mmHg 28%
    20:00 +37°C° 0 mm 5 m/s 714 mmHg 29%
    21:00 +37°C° 0 mm 4 m/s 714 mmHg 29%
    22:00 +37°C° 0 mm 4 m/s 715 mmHg 30%
    23:00 +36°C° 0 mm 4 m/s 715 mmHg 31%

    Amanhã, 20 Julho, Sexta-feira

    Tempo Temperatura Precipitação Vento Pressão Humidade
    00:00 +36°C° 0 mm 4 m/s 714 mmHg 32%
    01:00 +35°C° 0 mm 3 m/s 714 mmHg 33%
    02:00 +35°C° 0 mm 3 m/s 714 mmHg 34%
    03:00 +35°C° 0 mm 3 m/s 714 mmHg 34%
    04:00 +35°C° 0 mm 2 m/s 713 mmHg 35%
    05:00 +35°C° 0 mm 2 m/s 714 mmHg 36%
    06:00 +35°C° 0 mm 2 m/s 714 mmHg 36%
    07:00 +34°C° 0 mm 1 m/s 714 mmHg 37%
    08:00 +36°C° 0 mm 2 m/s 715 mmHg 35%
    09:00 +37°C° 0 mm 3 m/s 715 mmHg 32%
    10:00 +38°C° 0 mm 4 m/s 716 mmHg 30%
    11:00 +40°C° 0 mm 4 m/s 715 mmHg 28%
    12:00 +41°C° 0 mm 4 m/s 715 mmHg 25%
    13:00 +42°C° 0 mm 4 m/s 715 mmHg 23%
    14:00 +42°C° 0 mm 3 m/s 714 mmHg 21%
    15:00 +42°C° 0 mm 2 m/s 714 mmHg 19%
    16:00 +42°C° 0 mm 2 m/s 713 mmHg 18%
    17:00 +42°C° 0 mm 2 m/s 713 mmHg 18%
    18:00 +42°C° 0 mm 2 m/s 713 mmHg 18%
    19:00 +43°C° 0 mm 3 m/s 713 mmHg 18%
    20:00 +42°C° 0 mm 3 m/s 713 mmHg 19%
    21:00 +42°C° 0 mm 3 m/s 714 mmHg 19%
    22:00 +40°C° 0 mm 3 m/s 714 mmHg 20%
    23:00 +40°C° 0 mm 3 m/s 714 mmHg 22%

    Depois de amanhã, 21 Julho, Sábado

    Tempo Temperatura Precipitação Vento Pressão Humidade
    00:00 +39°C° 0 mm 3 m/s 714 mmHg 23%
    01:00 +39°C° 0 mm 3 m/s 714 mmHg 25%
    02:00 +39°C° 0 mm 5 m/s 714 mmHg 31%
    03:00 +38°C° 0 mm 7 m/s 714 mmHg 36%
    04:00 +37°C° 0 mm 8 m/s 714 mmHg 42%
    05:00 +35°C° 0,4 mm 8 m/s 715 mmHg 45%
    06:00 +34°C° 0,4 mm 7 m/s 715 mmHg 49%
    07:00 +34°C° 0,4 mm 7 m/s 715 mmHg 52%
    08:00 +34°C° 0,2 mm 7 m/s 716 mmHg 50%
    09:00 +35°C° 0,2 mm 7 m/s 716 mmHg 47%
    10:00 +36°C° 0,2 mm 7 m/s 717 mmHg 45%
    11:00 +38°C° 0 mm 7 m/s 717 mmHg 41%
    12:00 +38°C° 0 mm 6 m/s 716 mmHg 38%
    13:00 +39°C° 0 mm 6 m/s 716 mmHg 34%
    14:00 +40°C° 0 mm 6 m/s 716 mmHg 33%
    15:00 +40°C° 0 mm 6 m/s 715 mmHg 31%
    16:00 +41°C° 0 mm 6 m/s 715 mmHg 29%
    17:00 +40°C° 0,5 mm 6 m/s 715 mmHg 31%
    18:00 +39°C° 0,5 mm 6 m/s 715 mmHg 33%
    19:00 +38°C° 0,5 mm 6 m/s 715 mmHg 35%
    20:00 +36°C° 2,2 mm 6 m/s 716 mmHg 38%
    21:00 +35°C° 2,2 mm 5 m/s 716 mmHg 41%
    22:00 +33°C° 2,2 mm 5 m/s 717 mmHg 44%
    23:00 +34°C° 0,1 mm 5 m/s 717 mmHg 43%

    22 Julho, Domingo

    Tempo Temperatura Precipitação Vento Pressão Humidade
    00:00 +35°C° 0,1 mm 4 m/s 717 mmHg 42%
    01:00 +35°C° 0,1 mm 3 m/s 717 mmHg 40%
    02:00 +35°C° 0 mm 3 m/s 716 mmHg 41%
    03:00 +35°C° 0 mm 3 m/s 716 mmHg 42%
    04:00 +34°C° 0 mm 2 m/s 715 mmHg 43%
    05:00 +34°C° 0 mm 3 m/s 716 mmHg 44%
    06:00 +34°C° 0 mm 3 m/s 716 mmHg 46%
    07:00 +34°C° 0 mm 4 m/s 716 mmHg 47%
    08:00 +35°C° 0 mm 5 m/s 717 mmHg 45%
    09:00 +36°C° 0 mm 5 m/s 717 mmHg 42%
    10:00 +38°C° 0 mm 6 m/s 717 mmHg 40%
    11:00 +39°C° 0 mm 6 m/s 717 mmHg 37%
    12:00 +40°C° 0 mm 5 m/s 717 mmHg 33%
    13:00 +41°C° 0 mm 5 m/s 716 mmHg 30%
    14:00 +42°C° 0 mm 4 m/s 716 mmHg 27%
    15:00 +42°C° 0 mm 3 m/s 715 mmHg 25%
    16:00 +42°C° 0 mm 2 m/s 715 mmHg 22%
    17:00 +42°C° 0 mm 3 m/s 715 mmHg 22%
    18:00 +42°C° 0 mm 3 m/s 715 mmHg 23%
    19:00 +42°C° 0 mm 3 m/s 715 mmHg 23%
    20:00 +41°C° 0,5 mm 4 m/s 715 mmHg 26%
    21:00 +39°C° 0,5 mm 5 m/s 716 mmHg 30%
    22:00 +38°C° 0,5 mm 6 m/s 716 mmHg 33%
    23:00 +38°C° 0,1 mm 6 m/s 716 mmHg 33%

    23 Julho, Segunda-feira

    Tempo Temperatura Precipitação Vento Pressão Humidade
    00:00 +37°C° 0,1 mm 5 m/s 716 mmHg 34%
    01:00 +37°C° 0,1 mm 5 m/s 715 mmHg 35%
    02:00 +36°C° 0 mm 6 m/s 715 mmHg 39%
    03:00 +35°C° 0 mm 7 m/s 715 mmHg 43%
    04:00 +34°C° 0 mm 8 m/s 715 mmHg 48%
    05:00 +34°C° 0 mm 8 m/s 715 mmHg 49%
    06:00 +34°C° 0 mm 7 m/s 716 mmHg 51%
    07:00 +33°C° 0 mm 6 m/s 716 mmHg 52%
    08:00 +34°C° 0 mm 6 m/s 716 mmHg 49%
    09:00 +36°C° 0 mm 6 m/s 716 mmHg 45%
    10:00 +38°C° 0 mm 6 m/s 717 mmHg 41%
    11:00 +39°C° 0 mm 6 m/s 716 mmHg 38%
    12:00 +40°C° 0 mm 6 m/s 716 mmHg 34%
    13:00 +41°C° 0 mm 6 m/s 715 mmHg 30%
    14:00 +42°C° 0 mm 5 m/s 715 mmHg 27%
    15:00 +43°C° 0 mm 5 m/s 714 mmHg 25%
    16:00 +43°C° 0 mm 5 m/s 714 mmHg 22%
    17:00 +42°C° 0,6 mm 5 m/s 714 mmHg 24%
    18:00 +41°C° 0,6 mm 4 m/s 714 mmHg 26%
    19:00 +41°C° 0,6 mm 4 m/s 714 mmHg 29%
    20:00 +39°C° 1,6 mm 6 m/s 714 mmHg 33%
    21:00 +38°C° 1,6 mm 7 m/s 715 mmHg 38%
    22:00 +35°C° 1,6 mm 9 m/s 715 mmHg 43%
    23:00 +35°C° 0,5 mm 8 m/s 715 mmHg 41%

    24 Julho, Terça-feira

    Tempo Temperatura Precipitação Vento Pressão Humidade
    00:00 +35°C° 0,5 mm 8 m/s 714 mmHg 40%
    01:00 +35°C° 0,5 mm 7 m/s 714 mmHg 39%
    02:00 +35°C° 0 mm 7 m/s 714 mmHg 40%
    03:00 +35°C° 0 mm 6 m/s 714 mmHg 41%
    04:00 +35°C° 0 mm 6 m/s 713 mmHg 43%
    05:00 +35°C° 0 mm 5 m/s 714 mmHg 43%
    06:00 +35°C° 0 mm 5 m/s 714 mmHg 43%
    07:00 +35°C° 0 mm 4 m/s 714 mmHg 43%
    08:00 +36°C° 0 mm 5 m/s 715 mmHg 38%
    09:00 +38°C° 0 mm 6 m/s 715 mmHg 34%
    10:00 +40°C° 0 mm 6 m/s 716 mmHg 30%
    11:00 +41°C° 0 mm 6 m/s 715 mmHg 28%
    12:00 +42°C° 0 mm 6 m/s 715 mmHg 26%
    13:00 +44°C° 0 mm 6 m/s 715 mmHg 24%
    14:00 +42°C° 0,1 mm 5 m/s 714 mmHg 25%
    15:00 +42°C° 0,1 mm 5 m/s 714 mmHg 25%
    16:00 +42°C° 0,1 mm 5 m/s 713 mmHg 25%
    17:00 +40°C° 0,2 mm 5 m/s 713 mmHg 29%
    18:00 +39°C° 0,2 mm 6 m/s 713 mmHg 34%
    19:00 +38°C° 0,2 mm 6 m/s 713 mmHg 38%
    20:00 +36°C° 0,2 mm 7 m/s 713 mmHg 41%
    21:00 +35°C° 0,2 mm 7 m/s 714 mmHg 44%
    22:00 +34°C° 0,2 mm 7 m/s 714 mmHg 47%
    23:00 +34°C° 0 mm 7 m/s 714 mmHg 47%
    Mostrar mais